Wind_Speed
19 19 18 18 16 16 16 16 15 14 14 15 17 16 14 15 15 13 14 17 17 19 18 18 19 19 20 21 20 20 20 19 19
19 18 17 18 18 17 15 16 16 15 15 15 16 17 15 15 14 13 10 14 17 19 18 19 20 19 19 18 18 19 19 19 20
18 18 16 17 17 18 19 17 16 14 14 14 15 15 15 15 15 13 11 12 16 17 17 18 20 20 20 19 18 17 18 18 17
17 17 18 16 15 17 16 17 17 17 15 14 15 15 14 13 15 14 10 12 15 16 18 19 18 20 20 19 18 17 17 17 16
17 17 18 16 16 15 15 15 15 17 17 15 13 12 13 13 12 13 9 7 12 16 16 18 19 19 20 20 18 18 17 16 16
18 16 16 16 15 15 15 16 16 16 19 19 15 12 12 11 10 9 8 6 11 15 15 16 14 15 17 19 18 18 17 16 16
15 14 14 14 14 14 14 15 17 17 19 20 22 24 22 20 18 11 5 3 7 12 14 13 15 16 15 17 17 17 16 15 15
17 16 16 16 15 16 16 17 18 18 19 20 22 24 24 25 26 26 17 7 3 12 13 13 10 12 13 15 16 16 15 15 15
16 16 17 18 17 17 16 15 17 17 18 19 20 22 23 24 29 29 28 35 30 4 14 19 18 18 17 17 18 18 17 18 18
15 15 15 17 17 17 17 16 16 17 17 17 18 20 20 22 27 30 28 31 37 37 31 28 25 24 25 25 23 20 18 17 14
14 15 14 15 15 16 16 16 17 18 18 19 17 18 19 21 23 27 28 29 34 36 37 34 29 28 28 27 23 20 19 18 16
11 13 13 14 14 14 15 16 16 16 17 19 17 15 17 19 21 21 22 21 28 33 35 36 35 32 30 28 26 25 23 22 22
9 10 11 12 14 16 15 16 18 17 18 20 20 18 17 20 19 18 20 20 19 21 29 32 33 33 31 28 25 24 22 22 22
7 8 10 11 12 14 14 17 19 20 20 21 20 18 19 21 17 18 20 20 19 18 15 17 28 29 29 27 26 24 22 23 23
9 11 12 12 13 12 12 16 20 22 23 22 21 17 18 20 20 20 21 24 23 23 23 22 21 24 28 25 24 24 21 21 22
10 10 10 10 11 12 13 18 23 23 22 20 23 21 19 20 21 19 19 21 22 22 23 23 22 20 21 26 22 21 23 22 21
14 12 10 9 9 10 11 12 18 17 13 9 11 3 7 18 18 16 17 19 19 20 22 21 20 20 21 21 24 21 21 21 21
12 14 12 10 10 9 8 7 9 10 8 13 5 3 2 5 10 14 15 15 17 19 19 19 18 18 18 19 24 21 21 19 19
13 12 14 14 12 11 11 8 6 7 9 5 6 6 10 3 3 8 12 13 15 16 17 17 17 17 17 18 21 21 19 16 16
14 12 12 13 13 13 12 10 8 6 6 4 4 7 9 8 5 3 6 13 14 15 16 16 16 16 15 16 20 20 19 17 15
Wind_Direction
87 85 87 87 86 95 98 97 98 103 103 101 100 97 98 103 100 99 103 103 100 97 96 99 96 91 86 85 86 85 84 85 83
97 94 92 87 89 84 89 99 101 101 101 95 100 104 106 103 102 103 102 103 103 100 96 97 94 92 88 85 84 83 82 81 79
98 102 87 78 80 84 91 86 91 94 101 103 103 103 104 103 101 99 100 104 100 100 101 99 100 98 94 91 86 84 83 82 79
100 95 90 87 83 86 86 90 92 87 83 102 105 110 106 105 103 99 97 105 103 104 110 108 99 98 97 94 93 88 84 83 81
113 104 99 98 97 88 83 83 83 90 89 86 97 102 105 100 101 104 95 112 112 113 107 105 102 99 101 96 95 92 84 81 79
112 111 112 108 107 102 91 90 89 87 90 90 94 98 92 100 90 97 101 118 124 117 110 106 93 98 103 99 93 91 91 86 79
110 112 108 107 113 111 103 98 96 93 89 87 85 84 86 82 71 65 104 162 152 137 127 113 108 100 98 98 90 86 83 81 78
105 103 103 109 109 111 109 105 95 90 86 83 81 81 78 78 70 57 60 49 93 139 126 114 98 113 100 96 93 88 79 71 65
111 105 103 107 111 113 111 104 98 90 83 78 78 77 80 79 77 69 67 58 51 143 142 117 109 109 107 101 96 93 86 79 72
118 114 114 111 109 108 106 102 96 92 87 78 73 76 79 82 84 80 76 75 61 58 73 91 95 92 88 82 80 78 75 72 61
121 120 118 119 120 116 112 107 101 94 90 84 78 77 82 86 88 86 84 83 75 59 59 66 70 74 73 73 76 75 70 69 69
123 123 122 120 125 126 121 111 100 92 88 87 82 80 85 89 89 89 87 87 83 60 58 60 60 62 64 63 62 67 65 68 64
132 124 123 121 129 129 127 119 108 100 92 88 85 86 87 80 80 82 80 73 74 75 60 59 58 55 57 58 57 57 58 59 60
141 150 151 142 145 135 130 119 111 104 95 91 91 86 83 84 84 78 79 78 74 72 66 65 60 54 51 51 52 51 57 58 55
133 136 135 135 139 131 130 126 117 114 112 104 92 90 87 87 81 80 80 79 74 69 67 62 59 56 51 49 46 45 56 54 51
132 136 135 139 143 135 133 131 131 126 121 104 91 82 85 87 87 87 84 79 75 68 64 60 56 51 54 47 45 43 47 53 49
132 128 134 141 133 134 138 143 143 136 144 132 117 119 73 67 76 81 77 76 74 69 64 58 52 49 49 50 44 45 45 46 44
133 131 132 132 134 134 130 136 152 151 132 161 143 140 136 121 61 73 80 79 75 72 68 62 53 47 49 55 52 46 45 42 42
125 129 132 130 125 124 123 127 144 165 149 127 89 114 133 144 143 71 80 86 80 73 68 63 57 50 52 54 43 41 40 38 34
122 123 121 116 115 108 107 110 122 135 147 141 117 95 110 119 138 144 126 88 78 77 70 63 56 50 46 48 45 38 38 37 34
Height
836 836 838 837 836 835 835 836 836 837 839 839 838 840 843 844 845 846 847 845 845 845 846 845 845 845 846 848 849 849 850 851 851
836 838 839 840 839 839 838 838 839 839 841 842 842 842 844 846 847 848 849 848 847 846 847 848 848 849 850 851 852 852 853 854 854
839 838 841 843 844 842 842 843 842 842 842 843 844 845 845 847 848 849 851 851 850 849 850 852 851 851 852 854 855 856 856 857 857
842 841 840 843 846 846 846 846 845 844 846 845 846 845 847 849 849 852 853 854 852 853 853 853 854 853 854 855 857 858 859 860 860
843 844 842 844 846 850 850 850 851 848 848 847 848 848 848 850 852 852 854 856 854 854 855 856 856 856 856 858 859 859 861 863 863
844 846 846 847 848 849 852 853 854 853 852 851 850 849 850 851 854 854 854 856 856 855 857 857 858 859 859 860 862 861 864 865 866
849 848 848 849 850 851 854 857 857 857 857 857 854 853 853 853 855 856 855 856 857 856 856 858 861 861 863 862 863 865 867 868 867
851 852 851 850 853 854 856 857 859 860 861 861 860 856 856 856 857 859 856 856 851 851 856 858 861 863 864 865 867 868 870 870 870
853 854 854 853 855 857 858 860 860 862 863 866 865 864 862 862 861 862 859 857 858 855 857 862 862 864 866 868 869 871 872 873 873
854 856 857 856 857 860 860 863 864 864 865 867 870 869 868 867 866 864 865 864 864 862 856 859 865 868 869 871 873 874 876 875 876
855 857 859 859 859 862 863 864 866 867 867 868 873 874 873 872 871 869 869 869 870 872 871 870 870 872 873 875 877 878 879 878 879
858 858 860 862 862 863 864 866 869 870 870 870 874 879 877 877 875 874 873 874 874 878 878 877 877 879 879 880 881 881 882 882 882
859 859 860 862 865 863 866 866 867 872 871 872 875 880 880 879 880 880 877 880 882 883 884 882 882 884 885 886 886 886 885 884 884
860 860 861 862 867 865 867 867 869 872 875 876 877 882 884 882 883 885 882 883 887 888 888 887 886 888 890 890 890 890 889 888 888
860 861 862 864 866 867 869 869 870 873 875 878 881 885 887 887 886 889 889 888 891 893 892 892 890 891 893 894 894 894 893 892 891
861 861 863 866 867 867 870 869 871 875 878 879 885 889 892 891 892 893 895 893 895 898 897 897 896 896 896 896 898 898 897 896 895
861 862 865 866 867 869 869 872 873 876 877 880 883 891 898 897 897 898 898 898 899 900 900 901 902 902 900 900 901 901 900 900 898
862 861 866 868 867 869 869 874 875 876 878 879 879 886 893 899 902 901 902 902 902 904 904 905 906 905 905 904 904 904 902 903 902
859 865 866 867 869 870 869 874 876 878 878 881 880 880 885 893 903 905 906 905 906 907 906 907 908 909 908 907 907 906 906 906 905
862 867 869 868 869 871 870 874 877 878 880 880 883 883 884 888 893 901 907 907 910 909 909 909 910 909 909 910 911 909 908 908 907